MyTimes logo

TIMES

Webb Imagery

3/01/2016
Phillip Island Fun Swim
800m

(Click on competitor name to view personalised results)

Name
Race #
Category
Time
(h:mm:ss)
Avg Speed
km/hr
OAll
Place
Cat
Place
DICKSON James#939Adult Male 8000:10:31"13:09 " 11
VESSEY Glenn#907Adult Male 8000:10:58"13:42 " 22
MORROW Katrina#921Adult Female 8000:11:38"14:32 " 31
GRACE Jude#912Junior Male 8000:12:44"15:55 " 41
MAYES Tilly#920Junior Female 8000:12:46"15:57 " 51
CROSSLAND Nicholas#742Adult Male 8000:13:10"16:28 " 63
PRITCHARD Liam#909Junior Male 8000:13:23"16:44 " 72
HOWELL John#906Adult Male 8000:14:04"17:35 " 84
CURNOW Emily#516Adult Female 8000:14:18"17:52 " 92
CARTER Dean#933Adult Male 8000:14:34"18:12 " 105
JOHNSON Sarah#919Adult Female 8000:14:40"18:20 " 113
PARLE Anna#918Adult Female 8000:14:58"18:42 " 124
WOOD Samantha#904Junior Female 8000:15:00"18:45 " 132
PARLE Catherine#926Adult Female 8000:15:04"18:50 " 145
LENZ Chris#902Adult Male 8000:15:06"18:52 " 156
HARFORD Jane#913Adult Female 8000:15:07"18:54 " 166
MURPHY Leah#922Adult Female 8000:15:16"19:05 " 177
SMITH Rachel#914Adult Female 8000:15:21"19:11 " 188
AUSTER Amy#903Adult Female 8000:15:34"19:27 " 199
CAPLE David#915Adult Male 8000:15:36"19:30 " 207
MURPHY Sean#910Adult Male 8000:15:38"19:33 " 218
GEORGOPOULOS Maggie#911Adult Female 8000:15:41"19:36 " 2210
LYFORD Mark#934Adult Male 8000:16:21"20:26 " 239
STEPHENS Ellie#932Junior Female 8000:16:42"20:52 " 243
GOTHAM Molly#936Adult Female 8000:16:58"21:13 " 2511
HATFIELD Mandy#937Adult Female 8000:17:00"21:15 " 2612
FLINT Carisse#924Junior Female 8000:17:21"21:41 " 274
FLINT Sarah#925Adult Female 8000:17:23"21:44 " 2813
STEPHENS Molly#929Junior Female 8000:17:34"21:57 " 295
STEPHENS Maggie#930Junior Female 8000:18:02"22:33 " 306
STEPHENS Ruth#931Adult Female 8000:18:06"22:38 " 3114
WARD Maree#917Adult Female 8000:18:1622:50 3215